Weather History for KBPC - December, 2012

Change the Weather History Date:

Saturday, December 15, 2012

  Actual Average Record
Temperature  
Mean Temperature 48 °F -  
Max Temperature 60 °F - - ()
Min Temperature 35 °F - - ()
Degree Days  
Heating Degree Days 18    
Moisture  
Dew Point 30 °F    
Average Humidity 54    
Maximum Humidity 81    
Minimum Humidity 29    
Precipitation  
Precipitation 0.00 in - - ()
Sea Level Pressure  
Sea Level Pressure 29.72 in    
Wind  
Wind Speed 17 mph (WSW)    
Max Wind Speed 28 mph    
Max Gust Speed 40 mph    
Visibility 10 miles    
Events      
Averages and records for this station are not official NWS values.
T = Trace of Precipitation, MM = Missing Value Source: NWS Daily Summary

Daily Weather History Graph

Daily Weather History Graph

Search for Another Location

Airport or City:

Trip Planner

Search our weather history database for the weather conditions in past years. The results will help you decide how hot, cold, wet, or windy it might be!

Date:

Astronomy

Dec. 15, 2012 Rise Set
Actual Time 7:47 AM CST 5:31 PM CST
Civil Twilight 7:18 AM CST 6:00 PM CST
Nautical Twilight 6:46 AM CST 6:32 PM CST
Astronomical Twilight 6:15 AM CST 7:03 PM CST
Moon 9:45 AM CST (12/15) 8:33 PM CST (12/15)
Length of Visible Light 10h 41m
Length of Day
9h 44m
Waxing Crescent, 8% of the Moon is Illuminated
Dec 15
Waxing Crescent
Dec 19
First Quarter
Dec 28
Full
Jan 4
Last Quarter
Jan 11
New

Hourly Weather History & Observations

Time (CST) Temp. Windchill Dew Point Humidity Pressure Visibility Wind Dir Wind Speed Gust Speed Precip Events Conditions
12:15 AM 46.4 °F 37.5 °F 32.0 °F 57% 29.61 in 10.0 mi SW 27.6 mph 36.8 mph N/A   Clear
12:35 AM 46.4 °F 37.5 °F 32.0 °F 57% 29.62 in 10.0 mi WSW 27.6 mph 40.3 mph N/A   Clear
12:55 AM 46.4 °F 37.7 °F 32.0 °F 57% 29.62 in 10.0 mi WSW 26.5 mph 35.7 mph N/A   Clear
1:15 AM 44.6 °F 35.9 °F 30.2 °F 57% 29.62 in 10.0 mi WSW 23.0 mph 33.4 mph N/A   Clear
1:35 AM 44.6 °F 35.9 °F 30.2 °F 57% 29.63 in 10.0 mi WSW 23.0 mph 33.4 mph N/A   Clear
1:55 AM 46.4 °F 38.5 °F 30.2 °F 53% 29.64 in 10.0 mi WSW 21.9 mph 28.8 mph N/A   Clear
2:15 AM 46.4 °F 38.5 °F 28.4 °F 50% 29.65 in 10.0 mi WSW 21.9 mph 31.1 mph N/A   Clear
2:35 AM 46.4 °F 38.3 °F 28.4 °F 50% 29.66 in 10.0 mi WSW 23.0 mph 28.8 mph N/A   Clear
2:55 AM 46.4 °F 38.3 °F 28.4 °F 50% 29.66 in 10.0 mi WSW 23.0 mph 33.4 mph N/A   Clear
3:15 AM 44.6 °F 36.9 °F 28.4 °F 53% 29.67 in 10.0 mi WSW 18.4 mph 27.6 mph N/A   Clear
3:35 AM 44.6 °F 37.2 °F 28.4 °F 53% 29.70 in 10.0 mi WSW 17.3 mph 27.6 mph N/A   Clear
3:55 AM 44.6 °F 37.4 °F 28.4 °F 53% 29.70 in 10.0 mi WSW 16.1 mph 24.2 mph N/A   Clear
4:15 AM 44.6 °F 36.6 °F 28.4 °F 53% 29.70 in 10.0 mi WSW 19.6 mph 25.3 mph N/A   Clear
4:35 AM 44.6 °F 37.2 °F 28.4 °F 53% 29.71 in 10.0 mi WSW 17.3 mph 25.3 mph N/A   Clear
4:55 AM 42.8 °F 35.4 °F 28.4 °F 57% 29.71 in 10.0 mi WSW 15.0 mph 21.9 mph N/A   Clear
5:15 AM 42.8 °F 34.8 °F 28.4 °F 57% 29.71 in 10.0 mi WSW 17.3 mph - N/A   Clear
5:35 AM 41.0 °F 33.5 °F 30.2 °F 65% 29.72 in 10.0 mi SW 13.8 mph - N/A   Clear
5:55 AM 41.0 °F 34.7 °F 30.2 °F 65% 29.71 in 10.0 mi WSW 10.4 mph - N/A   Clear
6:15 AM 39.2 °F - 28.4 °F 65% 29.72 in 10.0 mi Calm Calm - N/A   Clear
6:35 AM 39.2 °F 32.5 °F 30.2 °F 70% 29.73 in 10.0 mi WSW 10.4 mph - N/A   Clear
6:55 AM 39.2 °F 32.5 °F 30.2 °F 70% 29.74 in 10.0 mi WSW 10.4 mph - N/A   Clear
7:15 AM 39.2 °F 32.0 °F 28.4 °F 65% 29.75 in 10.0 mi SW 11.5 mph - N/A   Clear
7:35 AM 39.2 °F 31.2 °F 30.2 °F 70% 29.75 in 10.0 mi SW 13.8 mph - N/A   Clear
7:55 AM 39.2 °F 31.2 °F 28.4 °F 65% 29.75 in 10.0 mi WSW 13.8 mph - N/A   Clear
8:15 AM 41.0 °F 33.1 °F 28.4 °F 61% 29.76 in 10.0 mi SW 15.0 mph - N/A   Clear
8:35 AM 41.0 °F 32.8 °F 30.2 °F 65% 29.78 in 10.0 mi SW 16.1 mph - N/A   Clear
8:55 AM 42.8 °F 34.8 °F 30.2 °F 61% 29.78 in 10.0 mi SW 17.3 mph 21.9 mph N/A   Clear
9:15 AM 44.6 °F 37.2 °F 30.2 °F 57% 29.78 in 10.0 mi WSW 17.3 mph - N/A   Clear
9:35 AM 44.6 °F 37.8 °F 30.2 °F 57% 29.79 in 10.0 mi WSW 15.0 mph - N/A   Clear
9:55 AM 44.6 °F 37.4 °F 30.2 °F 57% 29.80 in 10.0 mi WSW 16.1 mph - N/A   Clear
10:15 AM 46.4 °F 40.7 °F 30.2 °F 53% 29.79 in 10.0 mi WSW 12.7 mph - N/A   Clear
10:35 AM 48.2 °F - 30.2 °F 50% 29.78 in 10.0 mi West 10.4 mph - N/A   Clear
10:55 AM 50.0 °F - 30.2 °F 47% 29.78 in 10.0 mi WSW 10.4 mph - N/A   Clear
11:15 AM 51.8 °F - 30.2 °F 44% 29.79 in 10.0 mi SW 13.8 mph - N/A   Clear
11:35 AM 53.6 °F - 32.0 °F 44% 29.78 in 10.0 mi WSW 11.5 mph - N/A   Clear
11:55 AM 53.6 °F - 30.2 °F 41% 29.78 in 10.0 mi SW 12.7 mph - N/A   Clear
12:15 PM 55.4 °F - 30.2 °F 38% 29.77 in 10.0 mi WSW 12.7 mph - N/A   Clear
12:35 PM 55.4 °F - 30.2 °F 38% 29.76 in 10.0 mi SW 15.0 mph - N/A   Clear
12:55 PM 57.2 °F - 30.2 °F 36% 29.75 in 10.0 mi WSW 10.4 mph - N/A   Clear
1:15 PM 59.0 °F - 30.2 °F 34% 29.73 in 10.0 mi WSW 10.4 mph 16.1 mph N/A   Clear
1:55 PM 59.0 °F - 30.2 °F 34% 29.72 in 10.0 mi WSW 9.2 mph - N/A   Clear
2:15 PM 60.8 °F - 28.4 °F 29% 29.70 in 10.0 mi WSW 15.0 mph - N/A   Clear
2:35 PM 59.0 °F - 28.4 °F 31% 29.70 in 10.0 mi WSW 13.8 mph - N/A   Clear
2:55 PM 60.8 °F - 28.4 °F 29% 29.70 in 10.0 mi WSW 15.0 mph 21.9 mph N/A   Clear
3:15 PM 60.8 °F - 28.4 °F 29% 29.70 in 10.0 mi WSW 13.8 mph 21.9 mph N/A   Clear
3:35 PM 60.8 °F - 28.4 °F 29% 29.70 in 10.0 mi WSW 12.7 mph 16.1 mph N/A   Clear
3:55 PM 59.0 °F - 28.4 °F 31% 29.70 in 10.0 mi West 16.1 mph - N/A   Clear
4:15 PM 59.0 °F - 28.4 °F 31% 29.70 in 10.0 mi West 15.0 mph 20.7 mph N/A   Clear
4:35 PM 57.2 °F - 28.4 °F 33% 29.70 in 10.0 mi West 16.1 mph 20.7 mph N/A   Clear
4:55 PM 55.4 °F - 28.4 °F 36% 29.71 in 10.0 mi West 10.4 mph - N/A   Clear
5:15 PM 53.6 °F - 28.4 °F 38% 29.71 in 10.0 mi West 8.1 mph - N/A   Clear
5:35 PM 50.0 °F - 28.4 °F 43% 29.72 in 10.0 mi West 5.8 mph - N/A   Clear
5:55 PM 46.4 °F 44.3 °F 30.2 °F 53% 29.72 in 10.0 mi WSW 4.6 mph - N/A   Clear
6:15 PM 42.8 °F 38.6 °F 30.2 °F 61% 29.72 in 10.0 mi SSW 6.9 mph - N/A   Clear
6:35 PM 42.8 °F 37.5 °F 30.2 °F 61% 29.73 in 10.0 mi SW 9.2 mph - N/A   Clear
6:55 PM 42.8 °F 37.0 °F 30.2 °F 61% 29.73 in 10.0 mi SSW 10.4 mph - N/A   Clear
7:15 PM 42.8 °F 36.2 °F 30.2 °F 61% 29.74 in 10.0 mi SW 12.7 mph - N/A   Clear
7:55 PM 42.8 °F 36.2 °F 32.0 °F 66% 29.74 in 10.0 mi SW 12.7 mph - N/A   Clear
8:15 PM 42.8 °F 37.5 °F 32.0 °F 66% 29.73 in 10.0 mi WSW 9.2 mph - N/A   Clear
8:35 PM 42.8 °F 37.5 °F 32.0 °F 66% 29.73 in 10.0 mi WSW 9.2 mph - N/A   Clear
8:55 PM 39.2 °F 32.5 °F 32.0 °F 75% 29.73 in 10.0 mi WSW 10.4 mph - N/A   Clear
9:15 PM 39.2 °F 33.6 °F 30.2 °F 70% 29.72 in 10.0 mi WSW 8.1 mph - N/A   Clear
9:35 PM 39.2 °F 35.9 °F 30.2 °F 70% 29.73 in 10.0 mi WSW 4.6 mph - N/A   Clear
9:55 PM 39.2 °F - 30.2 °F 70% 29.74 in 10.0 mi Calm Calm - N/A   Clear
10:15 PM 41.0 °F 39.0 °F 30.2 °F 65% 29.74 in 10.0 mi SW 3.5 mph - N/A   Clear
10:35 PM 37.4 °F 32.1 °F 30.2 °F 75% 29.73 in 10.0 mi SW 6.9 mph - N/A   Clear
10:55 PM 35.6 °F 28.6 °F 30.2 °F 81% 29.74 in 10.0 mi SW 9.2 mph - N/A   Clear
11:15 PM 37.4 °F 29.3 °F 30.2 °F 75% 29.74 in 10.0 mi WSW 12.7 mph - N/A   Clear
11:35 PM 42.8 °F 35.1 °F 30.2 °F 61% 29.74 in 10.0 mi WSW 16.1 mph - N/A   Clear
11:55 PM 42.8 °F 35.4 °F 30.2 °F 61% 29.74 in 10.0 mi WSW 15.0 mph - N/A   Clear